User: anonymous   Login
Location: Unspecified
(0.0000°N, 0.0000°E)
Time: 07:15:17
(UTC+00:00)
Language:

DICE 1 - Orbit

View from above orbital plane
View from above orbital plane
View from above satellite
View from above satellite

Ground track
Ground track

The orbit data is extracted from the following two-line orbital elements,

1 37851U 11061B   17178.84794100 +.00001416 +00000-0 +83763-4 0  9993
2 37851 101.7358 051.2763 0189384 064.0177 298.0406 15.01117906307867
Epoch (UTC): 27 June 2017 20:21:02
Eccentricity: 0.0189384
inclination: 101.7358°
perigee height: 432 km
apogee height: 695 km
right ascension of ascending node: 51.2763°
argument of perigee: 64.0177°
revolutions per day: 15.01117906
mean anomaly at epoch: 298.0406°
orbit number at epoch: 30786

The dashed part of the orbit path shows where the satellite is in the earth's shadow,  

DLR